Time,TemperatureF,DewpointF,PressureIn,WindDirection,WindDirectionDegrees,WindSpeedMPH,WindSpeedGustMPH,Humidity,HourlyPrecipIn,Conditions,Clouds,dailyrainin,SoftwareType,DateUTC
2013-05-04 00:00:00,60.6,36.8,30.04,East,90,0.0,0.0,41,0.00,,SKC,0.00,VWS V14.01,2013-05-04 04:00:00,
2013-05-04 00:01:00,60.6,36.8,30.04,East,90,0.0,0.0,41,0.00,,SKC,0.00,VWS V14.01,2013-05-04 04:01:00,
2013-05-04 00:06:00,60.4,37.2,30.04,SSW,202,0.0,0.6,42,0.00,,SKC,0.00,VWS V14.01,2013-05-04 04:06:00,
2013-05-04 00:11:00,60.2,37.0,30.04,West,270,0.4,2.0,42,0.00,,SKC,0.00,VWS V14.01,2013-05-04 04:11:00,
2013-05-04 00:16:00,60.2,37.0,30.04,NE,45,0.0,0.0,42,0.00,,SKC,0.00,VWS V14.01,2013-05-04 04:16:00,
2013-05-04 00:21:00,60.2,37.0,30.04,ESE,112,0.0,0.6,42,0.00,,SKC,0.00,VWS V14.01,2013-05-04 04:21:00,
2013-05-04 00:26:00,59.9,37.4,30.04,SSE,158,0.0,0.6,43,0.00,,SKC,0.00,VWS V14.01,2013-05-04 04:26:00,
2013-05-04 00:31:00,59.9,37.4,30.04,South,180,2.6,2.6,43,0.00,,SKC,0.00,VWS V14.01,2013-05-04 04:31:00,
2013-05-04 00:36:00,59.7,37.8,30.04,ESE,112,0.0,2.6,44,0.00,,SKC,0.00,VWS V14.01,2013-05-04 04:36:00,
2013-05-04 00:41:00,59.7,38.3,30.04,ESE,112,0.0,2.6,45,0.00,,SKC,0.00,VWS V14.01,2013-05-04 04:41:00,
2013-05-04 00:46:00,59.5,38.2,30.04,ENE,68,0.0,0.0,45,0.00,,SKC,0.00,VWS V14.01,2013-05-04 04:46:00,
2013-05-04 00:51:00,59.5,38.2,30.04,South,180,0.0,0.0,45,0.00,,SKC,0.00,VWS V14.01,2013-05-04 04:51:00,
2013-05-04 00:56:00,59.3,38.0,30.04,SE,135,0.0,0.0,45,0.00,,SKC,0.00,VWS V14.01,2013-05-04 04:56:00,
2013-05-04 01:01:00,59.3,38.5,30.04,ENE,68,0.0,0.0,46,0.00,,SKC,0.00,VWS V14.01,2013-05-04 05:01:00,
2013-05-04 01:06:00,59.0,38.3,30.04,SE,135,0.0,0.0,46,0.00,,SKC,0.00,VWS V14.01,2013-05-04 05:06:00,
2013-05-04 01:11:00,59.0,38.8,30.04,SE,135,0.0,0.0,47,0.00,,SKC,0.00,VWS V14.01,2013-05-04 05:11:00,
2013-05-04 01:16:00,58.6,38.5,30.04,ESE,112,0.0,0.0,47,0.00,,SKC,0.00,VWS V14.01,2013-05-04 05:16:00,
2013-05-04 01:21:00,58.6,38.5,30.04,SSW,202,0.0,0.0,47,0.00,,SKC,0.00,VWS V14.01,2013-05-04 05:21:00,
2013-05-04 01:27:00,58.6,38.5,30.04,SE,135,0.0,1.1,47,0.00,,SKC,0.00,VWS V14.01,2013-05-04 05:27:00,
2013-05-04 01:32:00,58.4,38.8,30.04,SSE,158,0.0,0.0,48,0.00,,SKC,0.00,VWS V14.01,2013-05-04 05:32:00,
2013-05-04 01:37:00,58.4,38.8,30.04,ESE,112,0.0,0.0,48,0.00,,SKC,0.00,VWS V14.01,2013-05-04 05:37:00,
2013-05-04 01:42:00,58.4,38.8,30.04,ESE,112,0.0,0.0,48,0.00,,SKC,0.00,VWS V14.01,2013-05-04 05:42:00,
2013-05-04 01:47:00,58.2,38.6,30.04,SSE,158,0.0,0.0,48,0.00,,SKC,0.00,VWS V14.01,2013-05-04 05:47:00,
2013-05-04 01:52:00,58.1,38.5,30.04,SSE,158,0.0,0.0,48,0.00,,SKC,0.00,VWS V14.01,2013-05-04 05:52:00,
2013-05-04 01:57:00,58.1,39.1,30.04,SSW,202,0.0,0.0,49,0.00,,SKC,0.00,VWS V14.01,2013-05-04 05:57:00,
2013-05-04 02:02:00,58.1,39.6,30.04,SSE,158,0.0,0.0,50,0.00,,SKC,0.00,VWS V14.01,2013-05-04 06:02:00,
2013-05-04 02:07:00,58.1,39.6,30.04,SE,135,0.0,0.0,50,0.00,,SKC,0.00,VWS V14.01,2013-05-04 06:07:00,
2013-05-04 02:12:00,58.2,39.7,30.04,SSE,158,0.0,0.0,50,0.00,,SKC,0.00,VWS V14.01,2013-05-04 06:12:00,
2013-05-04 02:17:00,58.1,39.6,30.04,SE,135,0.0,0.0,50,0.00,,SKC,0.00,VWS V14.01,2013-05-04 06:17:00,
2013-05-04 02:22:00,58.2,39.7,30.04,SE,135,0.0,0.0,50,0.00,,SKC,0.00,VWS V14.01,2013-05-04 06:22:00,
2013-05-04 02:27:00,58.2,39.7,30.04,SE,135,0.0,0.0,50,0.00,,SKC,0.00,VWS V14.01,2013-05-04 06:27:00,
2013-05-04 02:32:00,58.1,39.6,30.04,SSE,158,0.0,0.0,50,0.00,,SKC,0.00,VWS V14.01,2013-05-04 06:32:00,
2013-05-04 02:37:00,58.1,40.1,30.04,South,180,0.0,0.0,51,0.00,,SKC,0.00,VWS V14.01,2013-05-04 06:37:00,
2013-05-04 02:42:00,58.1,40.1,30.04,SE,135,0.0,3.1,51,0.00,,SKC,0.00,VWS V14.01,2013-05-04 06:42:00,
2013-05-04 02:47:00,58.1,40.1,30.04,SSE,158,1.1,1.1,51,0.00,,SKC,0.00,VWS V14.01,2013-05-04 06:47:00,
2013-05-04 02:52:00,58.1,40.1,30.04,South,180,0.0,1.1,51,0.00,,SKC,0.00,VWS V14.01,2013-05-04 06:52:00,
2013-05-04 02:57:00,58.1,40.1,30.04,South,180,0.0,1.1,51,0.00,,SKC,0.00,VWS V14.01,2013-05-04 06:57:00,
2013-05-04 03:02:00,57.9,40.4,30.04,ESE,112,0.0,0.0,52,0.00,,SKC,0.00,VWS V14.01,2013-05-04 07:02:00,
2013-05-04 03:07:00,57.7,40.2,30.04,NNE,22,0.0,0.0,52,0.00,,SKC,0.00,VWS V14.01,2013-05-04 07:07:00,
2013-05-04 03:12:00,57.7,40.7,30.04,ESE,112,0.0,2.0,53,0.00,,SKC,0.00,VWS V14.01,2013-05-04 07:12:00,
2013-05-04 03:17:00,57.5,40.5,30.04,SE,135,0.0,0.0,53,0.00,,SKC,0.00,VWS V14.01,2013-05-04 07:17:00,
2013-05-04 03:22:00,57.2,40.2,30.04,SSW,202,0.0,0.0,53,0.00,,SKC,0.00,VWS V14.01,2013-05-04 07:22:00,
2013-05-04 03:27:00,57.2,40.7,30.04,SSW,202,0.0,0.0,54,0.00,,SKC,0.00,VWS V14.01,2013-05-04 07:27:00,
2013-05-04 03:32:00,56.8,40.3,30.04,SSE,158,0.0,0.0,54,0.00,,SKC,0.00,VWS V14.01,2013-05-04 07:32:00,
2013-05-04 03:37:00,56.6,40.2,30.04,SE,135,0.0,0.0,54,0.00,,SKC,0.00,VWS V14.01,2013-05-04 07:37:00,
2013-05-04 03:42:00,56.6,40.6,30.04,SSE,158,0.0,0.0,55,0.00,,SKC,0.00,VWS V14.01,2013-05-04 07:42:00,
2013-05-04 03:47:00,56.6,40.6,30.04,SSE,158,0.0,0.0,55,0.00,,SKC,0.00,VWS V14.01,2013-05-04 07:47:00,
2013-05-04 03:52:00,56.4,40.5,30.04,SSE,158,0.0,0.0,55,0.00,,SKC,0.00,VWS V14.01,2013-05-04 07:52:00,
2013-05-04 03:57:00,56.3,40.4,30.04,SSE,158,0.0,0.0,55,0.00,,SKC,0.00,VWS V14.01,2013-05-04 07:57:00,
2013-05-04 04:02:00,56.3,40.8,30.05,SSE,158,0.0,0.0,56,0.00,,SKC,0.00,VWS V14.01,2013-05-04 08:02:00,
2013-05-04 04:07:00,56.1,41.1,30.05,SE,135,0.0,0.0,57,0.00,,SKC,0.00,VWS V14.01,2013-05-04 08:07:00,
2013-05-04 04:12:00,55.9,40.9,30.04,South,180,0.0,0.0,57,0.00,,SKC,0.00,VWS V14.01,2013-05-04 08:12:00,
2013-05-04 04:17:00,55.7,40.7,30.04,SSE,158,0.0,0.0,57,0.00,,SKC,0.00,VWS V14.01,2013-05-04 08:17:00,
2013-05-04 04:22:00,55.7,41.2,30.05,SSE,158,0.0,0.4,58,0.00,,SKC,0.00,VWS V14.01,2013-05-04 08:22:00,
2013-05-04 04:27:00,55.5,41.0,30.05,SE,135,0.0,2.2,58,0.00,,SKC,0.00,VWS V14.01,2013-05-04 08:27:00,
2013-05-04 04:32:00,55.4,40.9,30.05,SSE,158,0.0,0.0,58,0.00,,SKC,0.00,VWS V14.01,2013-05-04 08:32:00,
2013-05-04 04:37:00,55.2,41.1,30.04,SE,135,0.0,0.0,59,0.00,,SKC,0.00,VWS V14.01,2013-05-04 08:37:00,
2013-05-04 04:42:00,55.0,41.0,30.05,SE,135,0.0,0.0,59,0.00,,SKC,0.00,VWS V14.01,2013-05-04 08:42:00,
2013-05-04 04:47:00,55.2,41.6,30.05,SE,135,0.0,0.0,60,0.00,,SKC,0.00,VWS V14.01,2013-05-04 08:47:00,
2013-05-04 04:52:00,55.0,41.4,30.05,SE,135,0.0,0.8,60,0.00,,SKC,0.00,VWS V14.01,2013-05-04 08:52:00,
2013-05-04 04:57:00,55.2,41.6,30.05,SE,135,0.0,0.8,60,0.00,,SKC,0.00,VWS V14.01,2013-05-04 08:57:00,
2013-05-04 05:03:00,55.0,41.0,30.05,SE,135,0.0,0.0,59,0.00,,SKC,0.00,VWS V14.01,2013-05-04 09:03:00,
2013-05-04 05:08:00,55.0,41.4,30.06,SE,135,0.0,0.0,60,0.00,,SKC,0.00,VWS V14.01,2013-05-04 09:08:00,
2013-05-04 05:13:00,55.2,41.6,30.05,SSE,158,0.0,0.0,60,0.00,,SKC,0.00,VWS V14.01,2013-05-04 09:13:00,
2013-05-04 05:18:00,55.2,41.6,30.06,SSE,158,0.0,0.0,60,0.00,,SKC,0.00,VWS V14.01,2013-05-04 09:18:00,
2013-05-04 05:23:00,55.0,41.4,30.06,SE,135,0.0,0.0,60,0.00,,SKC,0.00,VWS V14.01,2013-05-04 09:23:00,
2013-05-04 05:28:00,55.0,41.4,30.06,SE,135,0.0,0.0,60,0.00,,SKC,0.00,VWS V14.01,2013-05-04 09:28:00,
2013-05-04 05:33:00,55.2,42.0,30.06,SSE,158,0.0,0.0,61,0.00,,SKC,0.00,VWS V14.01,2013-05-04 09:33:00,
2013-05-04 05:38:00,55.0,41.8,30.06,SSE,158,0.0,0.0,61,0.00,,SKC,0.00,VWS V14.01,2013-05-04 09:38:00,
2013-05-04 05:43:00,55.0,41.8,30.06,NE,45,0.0,0.0,61,0.00,,SKC,0.00,VWS V14.01,2013-05-04 09:43:00,
2013-05-04 05:48:00,54.8,41.6,30.06,SSE,158,0.0,0.0,61,0.00,,SKC,0.00,VWS V14.01,2013-05-04 09:48:00,
2013-05-04 05:53:00,54.8,42.0,30.06,SSE,158,0.0,0.0,62,0.00,,SKC,0.00,VWS V14.01,2013-05-04 09:53:00,
2013-05-04 05:58:00,54.8,42.0,30.06,SSE,158,0.0,0.0,62,0.00,,SKC,0.00,VWS V14.01,2013-05-04 09:58:00,
2013-05-04 06:03:00,54.8,42.0,30.06,SSE,158,0.0,0.0,62,0.00,,SKC,0.00,VWS V14.01,2013-05-04 10:03:00,
2013-05-04 06:08:00,55.0,42.2,30.06,SSW,202,0.0,0.0,62,0.00,,SKC,0.00,VWS V14.01,2013-05-04 10:08:00,
2013-05-04 06:13:00,54.8,42.0,30.06,SSE,158,0.0,0.0,62,0.00,,SKC,0.00,VWS V14.01,2013-05-04 10:13:00,
2013-05-04 06:18:00,54.8,42.0,30.06,South,180,0.0,0.0,62,0.00,,SKC,0.00,VWS V14.01,2013-05-04 10:18:00,
2013-05-04 06:23:00,54.6,41.9,30.06,SSE,158,0.0,0.0,62,0.00,,SKC,0.00,VWS V14.01,2013-05-04 10:23:00,
2013-05-04 06:28:00,54.5,41.8,30.07,SSE,158,0.0,0.0,62,0.00,,SKC,0.00,VWS V14.01,2013-05-04 10:28:00,
2013-05-04 06:33:00,54.5,42.2,30.07,SSE,158,0.0,0.0,63,0.00,,SKC,0.00,VWS V14.01,2013-05-04 10:33:00,
2013-05-04 06:38:00,54.6,42.3,30.07,SSE,158,0.0,0.0,63,0.00,,SKC,0.00,VWS V14.01,2013-05-04 10:38:00,
2013-05-04 06:43:00,54.6,42.3,30.07,South,180,0.0,0.0,63,0.00,,SKC,0.00,VWS V14.01,2013-05-04 10:43:00,
2013-05-04 06:48:00,54.6,42.3,30.07,South,180,0.0,0.0,63,0.00,,SKC,0.00,VWS V14.01,2013-05-04 10:48:00,
2013-05-04 06:53:00,54.5,42.2,30.07,South,180,0.0,0.0,63,0.00,,SKC,0.00,VWS V14.01,2013-05-04 10:53:00,
2013-05-04 06:58:00,54.6,42.7,30.07,South,180,0.0,0.0,64,0.00,,SKC,0.00,VWS V14.01,2013-05-04 10:58:00,
2013-05-04 07:03:00,54.6,42.7,30.07,South,180,0.0,0.0,64,0.00,,SKC,0.00,VWS V14.01,2013-05-04 11:03:00,
2013-05-04 07:08:00,54.8,42.9,30.07,SE,135,0.0,2.9,64,0.00,,SKC,0.00,VWS V14.01,2013-05-04 11:08:00,
2013-05-04 07:13:00,55.0,43.1,30.08,South,180,0.0,2.9,64,0.00,,SKC,0.00,VWS V14.01,2013-05-04 11:13:00,
2013-05-04 07:18:00,55.2,43.7,30.08,South,180,0.0,0.0,65,0.00,,SKC,0.00,VWS V14.01,2013-05-04 11:18:00,
2013-05-04 07:23:00,55.5,43.9,30.08,SSW,202,1.1,1.1,65,0.00,,SKC,0.00,VWS V14.01,2013-05-04 11:23:00,
2013-05-04 07:28:00,55.9,44.3,30.08,SSE,158,0.0,1.1,65,0.00,,SKC,0.00,VWS V14.01,2013-05-04 11:28:00,
2013-05-04 07:33:00,56.1,44.1,30.08,SE,135,1.5,1.5,64,0.00,,SKC,0.00,VWS V14.01,2013-05-04 11:33:00,
2013-05-04 07:38:00,56.3,43.9,30.08,SSE,158,0.0,2.9,63,0.00,,SKC,0.00,VWS V14.01,2013-05-04 11:38:00,
2013-05-04 07:43:00,56.6,44.2,30.08,SSE,158,0.0,2.9,63,0.00,,SKC,0.00,VWS V14.01,2013-05-04 11:43:00,
2013-05-04 07:48:00,57.0,44.5,30.08,SSE,158,0.0,0.6,63,0.00,,SKC,0.00,VWS V14.01,2013-05-04 11:48:00,
2013-05-04 07:53:00,57.5,45.0,30.08,SSE,158,1.1,1.1,63,0.00,,SKC,0.00,VWS V14.01,2013-05-04 11:53:00,
2013-05-04 07:58:00,58.6,45.6,30.08,South,180,0.8,1.5,62,0.00,,SKC,0.00,VWS V14.01,2013-05-04 11:58:00,
2013-05-04 08:03:00,61.7,46.8,30.08,SSE,158,1.3,5.8,58,0.00,,SKC,0.00,VWS V14.01,2013-05-04 12:03:00,
2013-05-04 08:09:00,63.8,47.3,30.08,SSE,158,1.7,5.8,55,0.00,,SKC,0.00,VWS V14.01,2013-05-04 12:09:00,
2013-05-04 08:14:00,66.3,46.6,30.08,SSE,158,2.2,5.8,49,0.00,,SKC,0.00,VWS V14.01,2013-05-04 12:14:00,
2013-05-04 08:19:00,66.5,45.7,30.08,South,180,4.2,4.2,47,0.00,,SKC,0.00,VWS V14.01,2013-05-04 12:19:00,
2013-05-04 08:24:00,66.5,45.7,30.08,SE,135,3.3,4.2,47,0.00,,SKC,0.00,VWS V14.01,2013-05-04 12:24:00,
2013-05-04 08:29:00,65.8,44.5,30.08,SW,225,1.3,4.2,46,0.00,,SKC,0.00,VWS V14.01,2013-05-04 12:29:00,
2013-05-04 08:34:00,65.6,44.3,30.08,South,180,0.0,5.8,46,0.00,,SKC,0.00,VWS V14.01,2013-05-04 12:34:00,
2013-05-04 08:39:00,65.1,43.3,30.08,SSW,202,3.3,5.8,45,0.00,,SKC,0.00,VWS V14.01,2013-05-04 12:39:00,
2013-05-04 08:44:00,64.5,43.3,30.08,SSE,158,0.0,5.8,46,0.00,,SKC,0.00,VWS V14.01,2013-05-04 12:44:00,
2013-05-04 08:49:00,64.5,43.3,30.08,SW,225,1.5,4.2,46,0.00,,SKC,0.00,VWS V14.01,2013-05-04 12:49:00,
2013-05-04 08:54:00,64.4,43.8,30.08,South,180,1.3,4.2,47,0.00,,SKC,0.00,VWS V14.01,2013-05-04 12:54:00,
2013-05-04 08:59:00,64.2,43.0,30.08,SE,135,2.9,4.6,46,0.00,,SKC,0.00,VWS V14.01,2013-05-04 12:59:00,
2013-05-04 09:03:00,63.8,42.6,30.08,South,180,0.6,2.9,46,0.00,,SKC,0.00,VWS V14.01,2013-05-04 13:03:00,
2013-05-04 09:08:00,63.8,43.2,30.08,South,180,7.1,7.1,47,0.00,,SKC,0.00,VWS V14.01,2013-05-04 13:08:00,
2013-05-04 09:14:00,63.5,42.4,30.08,North,0,0.4,7.1,46,0.00,,SKC,0.00,VWS V14.01,2013-05-04 13:14:00,
2013-05-04 09:19:00,63.3,42.8,30.08,SSE,158,2.9,2.9,47,0.00,,SKC,0.00,VWS V14.01,2013-05-04 13:19:00,
2013-05-04 09:24:00,63.5,42.9,30.08,SSE,158,4.0,4.0,47,0.00,,SKC,0.00,VWS V14.01,2013-05-04 13:24:00,
2013-05-04 09:29:00,63.6,42.5,30.08,South,180,1.5,4.0,46,0.00,,SKC,0.00,VWS V14.01,2013-05-04 13:29:00,
2013-05-04 09:34:00,63.8,42.6,30.08,SSW,202,0.6,1.3,46,0.00,,SKC,0.00,VWS V14.01,2013-05-04 13:34:00,
2013-05-04 09:39:00,64.2,43.0,30.08,SSE,158,2.0,2.0,46,0.00,,SKC,0.00,VWS V14.01,2013-05-04 13:39:00,
2013-05-04 09:44:00,64.5,43.3,30.08,South,180,3.5,5.1,46,0.00,,SKC,0.00,VWS V14.01,2013-05-04 13:44:00,
2013-05-04 09:49:00,64.7,42.9,30.08,SSE,158,0.0,3.3,45,0.00,,SKC,0.00,VWS V14.01,2013-05-04 13:49:00,
2013-05-04 09:54:00,64.7,42.9,30.08,SSW,202,1.3,3.3,45,0.00,,SKC,0.00,VWS V14.01,2013-05-04 13:54:00,
2013-05-04 09:59:00,65.1,43.3,30.08,SSE,158,2.4,3.3,45,0.00,,SKC,0.00,VWS V14.01,2013-05-04 13:59:00,
2013-05-04 10:04:00,65.6,43.7,30.08,SE,135,2.9,2.9,45,0.00,,SKC,0.00,VWS V14.01,2013-05-04 14:04:00,
2013-05-04 10:09:00,65.8,43.3,30.08,South,180,0.2,2.9,44,0.00,,SKC,0.00,VWS V14.01,2013-05-04 14:09:00,
2013-05-04 10:14:00,66.3,43.2,30.08,SSW,202,3.8,5.1,43,0.00,,SKC,0.00,VWS V14.01,2013-05-04 14:14:00,
2013-05-04 10:19:00,66.3,43.2,30.08,South,180,1.7,3.3,43,0.00,,SKC,0.00,VWS V14.01,2013-05-04 14:19:00,
2013-05-04 10:24:00,66.9,43.1,30.08,SSW,202,5.8,5.8,42,0.00,,SKC,0.00,VWS V14.01,2013-05-04 14:24:00,
2013-05-04 10:29:00,67.4,43.5,30.07,South,180,2.2,5.8,42,0.00,,SKC,0.00,VWS V14.01,2013-05-04 14:29:00,
2013-05-04 10:34:00,68.1,43.5,30.08,South,180,3.3,3.3,41,0.00,,SKC,0.00,VWS V14.01,2013-05-04 14:34:00,
2013-05-04 10:39:00,68.5,43.2,30.08,South,180,0.0,6.2,40,0.00,,SKC,0.00,VWS V14.01,2013-05-04 14:39:00,
2013-05-04 10:44:00,68.7,43.4,30.08,SE,135,0.0,6.2,40,0.00,,SKC,0.00,VWS V14.01,2013-05-04 14:44:00,
2013-05-04 10:49:00,68.5,41.9,30.08,SSW,202,3.3,3.3,38,0.00,,SKC,0.00,VWS V14.01,2013-05-04 14:49:00,
2013-05-04 10:54:00,68.5,41.9,30.07,SW,225,6.2,6.2,38,0.00,,SKC,0.00,VWS V14.01,2013-05-04 14:54:00,
2013-05-04 10:59:00,68.7,42.8,30.08,ESE,112,0.0,6.2,39,0.00,,SKC,0.00,VWS V14.01,2013-05-04 14:59:00,
2013-05-04 11:04:00,68.7,41.4,30.08,ESE,112,0.0,0.0,37,0.00,,SKC,0.00,VWS V14.01,2013-05-04 15:04:00,
2013-05-04 11:09:00,68.9,40.9,30.08,SSW,202,0.0,1.3,36,0.00,,SKC,0.00,VWS V14.01,2013-05-04 15:09:00,
2013-05-04 11:14:00,69.2,41.1,30.08,SE,135,0.0,2.9,36,0.00,,SKC,0.00,VWS V14.01,2013-05-04 15:14:00,
2013-05-04 11:19:00,69.2,39.7,30.08,SSE,158,0.2,1.5,34,0.00,,SKC,0.00,VWS V14.01,2013-05-04 15:19:00,
2013-05-04 11:24:00,69.6,41.5,30.08,South,180,3.3,3.8,36,0.00,,SKC,0.00,VWS V14.01,2013-05-04 15:24:00,
2013-05-04 11:29:00,69.9,41.0,30.08,ESE,112,0.8,3.8,35,0.00,,SKC,0.00,VWS V14.01,2013-05-04 15:29:00,
2013-05-04 11:34:00,69.9,40.3,30.08,SSW,202,2.6,2.6,34,0.00,,SKC,0.00,VWS V14.01,2013-05-04 15:34:00,
2013-05-04 11:39:00,70.3,40.6,30.08,NE,45,0.0,2.9,34,0.00,,SKC,0.00,VWS V14.01,2013-05-04 15:39:00,
2013-05-04 11:44:00,70.1,40.5,30.08,South,180,5.5,5.5,34,0.00,,SKC,0.00,VWS V14.01,2013-05-04 15:44:00,
2013-05-04 11:49:00,69.9,38.7,30.08,SSE,158,0.0,2.0,32,0.00,,SKC,0.00,VWS V14.01,2013-05-04 15:49:00,
2013-05-04 11:54:00,70.1,38.9,30.08,SSW,202,0.8,2.0,32,0.00,,SKC,0.00,VWS V14.01,2013-05-04 15:54:00,
2013-05-04 11:59:00,70.3,39.9,30.08,SSE,158,0.0,2.4,33,0.00,,SKC,0.00,VWS V14.01,2013-05-04 15:59:00,
2013-05-04 12:04:00,70.8,37.9,30.07,SE,135,0.0,3.3,30,0.00,,SKC,0.00,VWS V14.01,2013-05-04 16:04:00,
2013-05-04 12:09:00,71.2,38.2,30.08,SSE,158,0.0,6.4,30,0.00,,SKC,0.00,VWS V14.01,2013-05-04 16:09:00,
2013-05-04 12:14:00,71.6,38.6,30.07,SE,135,2.4,6.4,30,0.00,,SKC,0.00,VWS V14.01,2013-05-04 16:14:00,
2013-05-04 12:19:00,72.3,39.2,30.07,SSW,202,6.9,6.9,30,0.00,,SKC,0.00,VWS V14.01,2013-05-04 16:19:00,
2013-05-04 12:24:00,72.6,39.4,30.07,SSE,158,2.0,6.9,30,0.00,,SKC,0.00,VWS V14.01,2013-05-04 16:24:00,
2013-05-04 12:29:00,72.6,38.5,30.06,SSW,202,0.0,6.9,29,0.00,,SKC,0.00,VWS V14.01,2013-05-04 16:29:00,
2013-05-04 12:34:00,73.0,38.0,30.06,South,180,0.0,1.5,28,0.00,,SKC,0.00,VWS V14.01,2013-05-04 16:34:00,
2013-05-04 12:40:00,73.2,38.2,30.06,SSW,202,2.4,3.5,28,0.00,,SKC,0.00,VWS V14.01,2013-05-04 16:40:00,
2013-05-04 12:45:00,73.5,38.4,30.06,SE,135,0.0,3.5,28,0.00,,SKC,0.00,VWS V14.01,2013-05-04 16:45:00,
2013-05-04 12:50:00,73.7,37.7,30.07,South,180,0.0,0.4,27,0.00,,SKC,0.00,VWS V14.01,2013-05-04 16:50:00,
2013-05-04 12:55:00,73.7,38.6,30.06,SE,135,0.8,0.8,28,0.00,,SKC,0.00,VWS V14.01,2013-05-04 16:55:00,
2013-05-04 13:00:00,74.1,39.8,30.06,South,180,1.1,1.5,29,0.00,,SKC,0.00,VWS V14.01,2013-05-04 17:00:00,
2013-05-04 13:05:00,74.3,39.1,30.06,ENE,68,1.1,1.1,28,0.00,,SKC,0.00,VWS V14.01,2013-05-04 17:05:00,
2013-05-04 13:10:00,74.1,37.1,30.06,SE,135,0.0,1.3,26,0.00,,SKC,0.00,VWS V14.01,2013-05-04 17:10:00,
2013-05-04 13:15:00,73.5,36.5,30.06,NE,45,0.0,0.0,26,0.00,,SKC,0.00,VWS V14.01,2013-05-04 17:15:00,
2013-05-04 13:20:00,73.5,37.5,30.06,South,180,2.4,5.5,27,0.00,,SKC,0.00,VWS V14.01,2013-05-04 17:20:00,
2013-05-04 13:25:00,73.5,37.5,30.06,South,180,0.2,5.5,27,0.00,,SKC,0.00,VWS V14.01,2013-05-04 17:25:00,
2013-05-04 13:30:00,73.5,36.5,30.06,SSW,202,2.9,5.5,26,0.00,,SKC,0.00,VWS V14.01,2013-05-04 17:30:00,
2013-05-04 13:35:00,73.0,34.1,30.05,ENE,68,0.0,2.9,24,0.00,,SKC,0.00,VWS V14.01,2013-05-04 17:35:00,
2013-05-04 13:40:00,73.0,36.1,30.05,East,90,6.2,6.2,26,0.00,,SKC,0.00,VWS V14.01,2013-05-04 17:40:00,
2013-05-04 13:45:00,72.5,33.7,30.05,NE,45,1.5,1.5,24,0.00,,SKC,0.00,VWS V14.01,2013-05-04 17:45:00,
2013-05-04 13:50:00,72.3,35.5,30.05,WNW,292,0.0,1.5,26,0.00,,SKC,0.00,VWS V14.01,2013-05-04 17:50:00,
2013-05-04 13:55:00,71.9,33.2,30.05,SSE,158,0.6,4.2,24,0.00,,SKC,0.00,VWS V14.01,2013-05-04 17:55:00,
2013-05-04 14:00:00,71.7,33.0,30.05,East,90,0.2,0.2,24,0.00,,SKC,0.00,VWS V14.01,2013-05-04 18:00:00,
2013-05-04 14:05:00,71.4,27.0,30.05,NE,45,4.0,4.0,19,0.00,,SKC,0.00,VWS V14.01,2013-05-04 18:05:00,
2013-05-04 14:10:00,71.7,29.7,30.04,SSE,158,0.8,4.0,21,0.00,,SKC,0.00,VWS V14.01,2013-05-04 18:10:00,
2013-05-04 14:15:00,71.9,33.2,30.04,South,180,1.5,1.5,24,0.00,,SKC,0.00,VWS V14.01,2013-05-04 18:15:00,
2013-05-04 14:20:00,72.5,33.7,30.04,South,180,1.1,5.5,24,0.00,,SKC,0.00,VWS V14.01,2013-05-04 18:20:00,
2013-05-04 14:25:00,73.5,35.6,30.05,South,180,0.6,5.5,25,0.00,,SKC,0.00,VWS V14.01,2013-05-04 18:25:00,
2013-05-04 14:30:00,74.1,35.0,30.04,East,90,0.0,0.0,24,0.00,,SKC,0.00,VWS V14.01,2013-05-04 18:30:00,
2013-05-04 14:35:00,74.1,31.7,30.04,East,90,1.1,1.1,21,0.00,,SKC,0.00,VWS V14.01,2013-05-04 18:35:00,
2013-05-04 14:40:00,74.1,34.0,30.04,ESE,112,2.9,2.9,23,0.00,,SKC,0.00,VWS V14.01,2013-05-04 18:40:00,
2013-05-04 14:45:00,74.1,32.9,30.04,SE,135,0.2,0.2,22,0.00,,SKC,0.00,VWS V14.01,2013-05-04 18:45:00,
2013-05-04 14:50:00,73.7,31.4,30.04,NE,45,0.0,0.8,21,0.00,,SKC,0.00,VWS V14.01,2013-05-04 18:50:00,
2013-05-04 14:55:00,73.5,33.5,30.04,SSE,158,1.3,1.3,23,0.00,,SKC,0.00,VWS V14.01,2013-05-04 18:55:00,
2013-05-04 15:00:00,73.2,33.2,30.04,NE,45,1.3,1.3,23,0.00,,SKC,0.00,VWS V14.01,2013-05-04 19:00:00,
2013-05-04 15:05:00,72.8,30.6,30.04,ENE,68,5.1,5.1,21,0.00,,SKC,0.00,VWS V14.01,2013-05-04 19:05:00,
2013-05-04 15:10:00,71.7,30.9,30.04,South,180,1.1,5.1,22,0.00,,SKC,0.00,VWS V14.01,2013-05-04 19:10:00,
2013-05-04 15:15:00,71.2,31.5,30.04,South,180,1.5,1.5,23,0.00,,SKC,0.00,VWS V14.01,2013-05-04 19:15:00,
2013-05-04 15:20:00,71.2,31.5,30.04,South,180,3.3,4.0,23,0.00,,SKC,0.00,VWS V14.01,2013-05-04 19:20:00,
2013-05-04 15:25:00,71.6,31.9,30.04,SSE,158,1.3,4.0,23,0.00,,SKC,0.00,VWS V14.01,2013-05-04 19:25:00,
2013-05-04 15:30:00,71.7,32.0,30.04,SE,135,1.7,1.7,23,0.00,,SKC,0.00,VWS V14.01,2013-05-04 19:30:00,
2013-05-04 15:35:00,71.9,33.2,30.03,SE,135,5.1,5.1,24,0.00,,SKC,0.00,VWS V14.01,2013-05-04 19:35:00,
2013-05-04 15:40:00,72.1,32.3,30.03,ESE,112,0.8,5.1,23,0.00,,SKC,0.00,VWS V14.01,2013-05-04 19:40:00,
2013-05-04 15:45:00,72.1,33.3,30.04,NNE,22,4.2,4.2,24,0.00,,SKC,0.00,VWS V14.01,2013-05-04 19:45:00,
2013-05-04 15:50:00,71.9,31.0,30.04,East,90,0.8,4.2,22,0.00,,SKC,0.00,VWS V14.01,2013-05-04 19:50:00,
2013-05-04 15:55:00,71.9,31.0,30.03,ENE,68,1.5,4.2,22,0.00,,SKC,0.00,VWS V14.01,2013-05-04 19:55:00,
2013-05-04 16:00:00,71.7,30.9,30.03,ENE,68,2.0,2.0,22,0.00,,SKC,0.00,VWS V14.01,2013-05-04 20:00:00,
2013-05-04 16:05:00,71.9,31.0,30.03,South,180,2.9,3.1,22,0.00,,SKC,0.00,VWS V14.01,2013-05-04 20:05:00,
2013-05-04 16:10:00,72.5,32.6,30.03,NE,45,1.7,3.1,23,0.00,,SKC,0.00,VWS V14.01,2013-05-04 20:10:00,
2013-05-04 16:15:00,72.5,32.6,30.03,SSE,158,2.0,2.0,23,0.00,,SKC,0.00,VWS V14.01,2013-05-04 20:15:00,
2013-05-04 16:20:00,73.2,32.1,30.03,SSE,158,1.7,2.0,22,0.00,,SKC,0.00,VWS V14.01,2013-05-04 20:20:00,
2013-05-04 16:25:00,73.2,31.0,30.03,NE,45,0.0,2.2,21,0.00,,SKC,0.00,VWS V14.01,2013-05-04 20:25:00,
2013-05-04 16:30:00,73.0,33.0,30.03,ESE,112,1.7,1.7,23,0.00,,SKC,0.00,VWS V14.01,2013-05-04 20:30:00,
2013-05-04 16:36:00,72.8,30.6,30.03,ESE,112,3.1,5.1,21,0.00,,SKC,0.00,VWS V14.01,2013-05-04 20:36:00,
2013-05-04 16:41:00,72.5,30.4,30.02,East,90,4.4,5.1,21,0.00,,SKC,0.00,VWS V14.01,2013-05-04 20:41:00,
2013-05-04 16:46:00,71.9,29.9,30.02,East,90,4.0,4.0,21,0.00,,SKC,0.00,VWS V14.01,2013-05-04 20:46:00,
2013-05-04 16:51:00,71.6,31.9,30.02,South,180,4.0,4.0,23,0.00,,SKC,0.00,VWS V14.01,2013-05-04 20:51:00,
2013-05-04 16:56:00,71.9,34.2,30.02,SE,135,1.7,5.5,25,0.00,,SKC,0.00,VWS V14.01,2013-05-04 20:56:00,
2013-05-04 17:01:00,72.1,35.4,30.02,NE,45,0.0,2.0,26,0.00,,SKC,0.00,VWS V14.01,2013-05-04 21:01:00,
2013-05-04 17:06:00,72.3,35.5,30.02,SSE,158,4.2,4.2,26,0.00,,SKC,0.00,VWS V14.01,2013-05-04 21:06:00,
2013-05-04 17:11:00,72.3,33.5,30.02,North,0,4.2,4.2,24,0.00,,SKC,0.00,VWS V14.01,2013-05-04 21:11:00,
2013-05-04 17:16:00,72.1,33.3,30.02,South,180,6.9,6.9,24,0.00,,SKC,0.00,VWS V14.01,2013-05-04 21:16:00,
2013-05-04 17:21:00,72.1,34.4,30.02,ESE,112,0.0,6.9,25,0.00,,SKC,0.00,VWS V14.01,2013-05-04 21:21:00,
2013-05-04 17:26:00,71.7,32.0,30.02,East,90,4.6,6.9,23,0.00,,SKC,0.00,VWS V14.01,2013-05-04 21:26:00,
2013-05-04 17:31:00,71.0,31.4,30.02,SE,135,1.7,5.5,23,0.00,,SKC,0.00,VWS V14.01,2013-05-04 21:31:00,
2013-05-04 17:36:00,70.7,32.2,30.02,East,90,0.0,5.5,24,0.00,,SKC,0.00,VWS V14.01,2013-05-04 21:36:00,
2013-05-04 17:41:00,69.9,31.5,30.02,East,90,4.0,5.5,24,0.00,,SKC,0.00,VWS V14.01,2013-05-04 21:41:00,
2013-05-04 17:46:00,69.6,31.2,30.02,SE,135,1.5,7.3,24,0.00,,SKC,0.00,VWS V14.01,2013-05-04 21:46:00,
2013-05-04 17:51:00,69.4,31.1,30.02,SE,135,1.5,7.3,24,0.00,,SKC,0.00,VWS V14.01,2013-05-04 21:51:00,
2013-05-04 17:56:00,69.0,30.7,30.02,ENE,68,4.0,7.3,24,0.00,,SKC,0.00,VWS V14.01,2013-05-04 21:56:00,
2013-05-04 18:01:00,68.9,30.6,30.02,SSW,202,0.0,5.5,24,0.00,,SKC,0.00,VWS V14.01,2013-05-04 22:01:00,
2013-05-04 18:06:00,69.0,32.7,30.02,ESE,112,0.0,5.5,26,0.00,,SKC,0.00,VWS V14.01,2013-05-04 22:06:00,
2013-05-04 18:11:00,69.2,31.9,30.02,East,90,2.0,5.5,25,0.00,,SKC,0.00,VWS V14.01,2013-05-04 22:11:00,
2013-05-04 18:16:00,69.2,32.9,30.02,SE,135,1.3,1.3,26,0.00,,SKC,0.00,VWS V14.01,2013-05-04 22:16:00,
2013-05-04 18:21:00,69.2,31.9,30.02,SE,135,0.2,1.3,25,0.00,,SKC,0.00,VWS V14.01,2013-05-04 22:21:00,
2013-05-04 18:26:00,69.0,32.7,30.02,SSE,158,1.3,2.2,26,0.00,,SKC,0.00,VWS V14.01,2013-05-04 22:26:00,
2013-05-04 18:31:00,69.0,31.8,30.02,SSE,158,0.0,0.0,25,0.00,,SKC,0.00,VWS V14.01,2013-05-04 22:31:00,
2013-05-04 18:36:00,68.9,32.6,30.02,SW,225,0.0,0.0,26,0.00,,SKC,0.00,VWS V14.01,2013-05-04 22:36:00,
2013-05-04 18:41:00,68.9,32.6,30.02,SSE,158,2.4,5.3,26,0.00,,SKC,0.00,VWS V14.01,2013-05-04 22:41:00,
2013-05-04 18:47:00,69.2,32.9,30.02,ENE,68,2.9,2.9,26,0.00,,SKC,0.00,VWS V14.01,2013-05-04 22:47:00,
2013-05-04 18:52:00,69.4,32.1,30.02,East,90,0.0,2.9,25,0.00,,SKC,0.00,VWS V14.01,2013-05-04 22:52:00,
2013-05-04 18:57:00,69.8,32.4,30.02,SSE,158,0.0,2.9,25,0.00,,SKC,0.00,VWS V14.01,2013-05-04 22:57:00,
2013-05-04 19:02:00,69.9,31.5,30.02,SE,135,0.0,0.0,24,0.00,,SKC,0.00,VWS V14.01,2013-05-04 23:02:00,
2013-05-04 19:07:00,69.9,31.5,30.02,NNE,22,0.0,0.0,24,0.00,,SKC,0.00,VWS V14.01,2013-05-04 23:07:00,
2013-05-04 19:12:00,69.8,31.4,30.02,SSE,158,2.6,2.6,24,0.00,,SKC,0.00,VWS V14.01,2013-05-04 23:12:00,
2013-05-04 19:17:00,69.4,31.1,30.02,SE,135,2.2,2.2,24,0.00,,SKC,0.00,VWS V14.01,2013-05-04 23:17:00,
2013-05-04 19:22:00,69.2,30.9,30.02,ESE,112,0.6,2.2,24,0.00,,SKC,0.00,VWS V14.01,2013-05-04 23:22:00,
2013-05-04 19:27:00,69.2,30.9,30.02,SE,135,0.0,4.2,24,0.00,,SKC,0.00,VWS V14.01,2013-05-04 23:27:00,
2013-05-04 19:32:00,69.0,30.7,30.03,SE,135,0.0,0.0,24,0.00,,SKC,0.00,VWS V14.01,2013-05-04 23:32:00,
2013-05-04 19:37:00,69.0,30.7,30.02,SE,135,0.8,0.8,24,0.00,,SKC,0.00,VWS V14.01,2013-05-04 23:37:00,
2013-05-04 19:42:00,69.2,30.9,30.03,ESE,112,0.0,2.0,24,0.00,,SKC,0.00,VWS V14.01,2013-05-04 23:42:00,
2013-05-04 19:47:00,68.7,30.5,30.03,SSE,158,0.0,0.0,24,0.00,,SKC,0.00,VWS V14.01,2013-05-04 23:47:00,
2013-05-04 19:52:00,68.5,32.3,30.03,East,90,0.0,0.0,26,0.00,,SKC,0.00,VWS V14.01,2013-05-04 23:52:00,
2013-05-04 19:57:00,68.1,32.0,30.03,NE,45,0.0,0.0,26,0.00,,SKC,0.00,VWS V14.01,2013-05-04 23:57:00,
2013-05-04 20:02:00,67.6,30.6,30.02,ENE,68,0.0,0.0,25,0.00,,SKC,0.00,VWS V14.01,2013-05-05 00:02:00,
2013-05-04 20:07:00,67.1,31.1,30.02,ESE,112,0.8,0.8,26,0.00,,SKC,0.00,VWS V14.01,2013-05-05 00:07:00,
2013-05-04 20:12:00,66.5,31.5,30.03,SE,135,0.0,0.8,27,0.00,,SKC,0.00,VWS V14.01,2013-05-05 00:12:00,
2013-05-04 20:17:00,65.8,31.8,30.02,ESE,112,0.6,0.6,28,0.00,,SKC,0.00,VWS V14.01,2013-05-05 00:17:00,
2013-05-04 20:22:00,65.6,31.6,30.03,ENE,68,0.0,0.6,28,0.00,,SKC,0.00,VWS V14.01,2013-05-05 00:22:00,
2013-05-04 20:27:00,65.3,32.3,30.03,ESE,112,0.0,0.6,29,0.00,,SKC,0.00,VWS V14.01,2013-05-05 00:27:00,
2013-05-04 20:32:00,64.7,32.6,30.03,SSE,158,0.0,1.1,30,0.00,,SKC,0.00,VWS V14.01,2013-05-05 00:32:00,
2013-05-04 20:37:00,64.2,32.2,30.03,ENE,68,0.0,1.1,30,0.00,,SKC,0.00,VWS V14.01,2013-05-05 00:37:00,
2013-05-04 20:42:00,63.8,32.6,30.04,SSW,202,0.0,1.1,31,0.00,,SKC,0.00,VWS V14.01,2013-05-05 00:42:00,
2013-05-04 20:48:00,63.3,32.2,30.04,SW,225,0.0,0.0,31,0.00,,SKC,0.00,VWS V14.01,2013-05-05 00:48:00,
2013-05-04 20:53:00,63.1,32.8,30.04,SW,225,0.0,0.0,32,0.00,,SKC,0.00,VWS V14.01,2013-05-05 00:53:00,
2013-05-04 20:58:00,62.7,32.4,30.04,SW,225,0.0,0.0,32,0.00,,SKC,0.00,VWS V14.01,2013-05-05 00:58:00,
2013-05-04 21:03:00,62.0,31.8,30.04,SW,225,0.0,0.0,32,0.00,,SKC,0.00,VWS V14.01,2013-05-05 01:03:00,
2013-05-04 21:08:00,61.7,31.6,30.04,SW,225,0.0,0.0,32,0.00,,SKC,0.00,VWS V14.01,2013-05-05 01:08:00,
2013-05-04 21:13:00,61.5,32.2,30.04,ENE,68,0.0,0.0,33,0.00,,SKC,0.00,VWS V14.01,2013-05-05 01:13:00,
2013-05-04 21:18:00,61.1,31.8,30.04,ENE,68,0.0,0.0,33,0.00,,SKC,0.00,VWS V14.01,2013-05-05 01:18:00,
2013-05-04 21:23:00,60.9,31.6,30.04,ENE,68,0.0,0.0,33,0.00,,SKC,0.00,VWS V14.01,2013-05-05 01:23:00,
2013-05-04 21:28:00,60.4,31.9,30.04,ENE,68,0.0,0.0,34,0.00,,SKC,0.00,VWS V14.01,2013-05-05 01:28:00,
2013-05-04 21:33:00,60.2,31.8,30.04,ENE,68,0.0,0.0,34,0.00,,SKC,0.00,VWS V14.01,2013-05-05 01:33:00,
2013-05-04 21:38:00,59.9,32.2,30.04,ENE,68,0.0,0.0,35,0.00,,SKC,0.00,VWS V14.01,2013-05-05 01:38:00,
2013-05-04 21:43:00,59.5,31.9,30.05,ENE,68,0.0,0.0,35,0.00,,SKC,0.00,VWS V14.01,2013-05-05 01:43:00,
2013-05-04 21:48:00,59.3,31.7,30.05,ENE,68,0.0,0.0,35,0.00,,SKC,0.00,VWS V14.01,2013-05-05 01:48:00,
2013-05-04 21:53:00,59.1,32.2,30.05,ENE,68,0.0,0.0,36,0.00,,SKC,0.00,VWS V14.01,2013-05-05 01:53:00,
2013-05-04 21:58:00,58.6,31.8,30.05,ENE,68,0.0,0.0,36,0.00,,SKC,0.00,VWS V14.01,2013-05-05 01:58:00,
2013-05-04 22:03:00,58.4,32.2,30.05,ENE,68,0.0,0.0,37,0.00,,SKC,0.06,VWS V14.01,2013-05-05 02:03:00,
2013-05-04 22:08:00,58.4,32.2,30.05,ENE,68,0.0,0.0,37,0.00,,SKC,0.00,VWS V14.01,2013-05-05 02:08:00,
2013-05-04 22:13:00,58.1,32.7,30.05,ENE,68,0.0,0.0,38,0.00,,SKC,0.00,VWS V14.01,2013-05-05 02:13:00,
2013-05-04 22:18:00,58.1,32.7,30.05,ENE,68,0.0,0.0,38,0.00,,SKC,0.00,VWS V14.01,2013-05-05 02:18:00,
2013-05-04 22:23:00,58.1,33.3,30.05,NE,45,0.0,0.0,39,0.00,,SKC,0.00,VWS V14.01,2013-05-05 02:23:00,
2013-05-04 22:28:00,58.2,33.4,30.05,SSE,158,0.0,0.0,39,0.00,,SKC,0.00,VWS V14.01,2013-05-05 02:28:00,
2013-05-04 22:33:00,58.4,33.6,30.05,West,270,0.0,0.0,39,0.00,,SKC,0.00,VWS V14.01,2013-05-05 02:33:00,
2013-05-04 22:38:00,58.6,33.7,30.05,ENE,68,0.0,0.4,39,0.00,,SKC,0.00,VWS V14.01,2013-05-05 02:38:00,
2013-05-04 22:43:00,58.6,33.7,30.06,SSE,158,0.0,0.4,39,0.00,,SKC,0.00,VWS V14.01,2013-05-05 02:43:00,
2013-05-04 22:48:00,58.6,33.7,30.05,SE,135,0.0,0.0,39,0.00,,SKC,0.00,VWS V14.01,2013-05-05 02:48:00,
2013-05-04 22:53:00,58.6,33.7,30.05,SE,135,0.0,1.5,39,0.00,,SKC,0.00,VWS V14.01,2013-05-05 02:53:00,
2013-05-04 22:58:00,58.4,33.6,30.06,SSE,158,0.0,1.5,39,0.00,,SKC,0.00,VWS V14.01,2013-05-05 02:58:00,
2013-05-04 23:03:00,58.4,34.2,30.05,ESE,112,0.0,4.9,40,0.00,,SKC,0.00,VWS V14.01,2013-05-05 03:03:00,
2013-05-04 23:08:00,58.2,33.4,30.05,SSE,158,1.5,4.9,39,0.00,,SKC,0.00,VWS V14.01,2013-05-05 03:08:00,
2013-05-04 23:13:00,58.4,34.2,30.05,SE,135,0.0,4.9,40,0.00,,SKC,0.00,VWS V14.01,2013-05-05 03:13:00,
2013-05-04 23:19:00,58.2,34.0,30.05,NE,45,0.0,0.0,40,0.00,,SKC,0.00,VWS V14.01,2013-05-05 03:19:00,
2013-05-04 23:24:00,58.2,34.0,30.06,SE,135,0.0,0.6,40,0.00,,SKC,0.00,VWS V14.01,2013-05-05 03:24:00,
2013-05-04 23:29:00,58.1,33.9,30.05,SE,135,0.0,0.6,40,0.00,,SKC,0.00,VWS V14.01,2013-05-05 03:29:00,
2013-05-04 23:34:00,58.1,33.9,30.05,SE,135,0.0,0.0,40,0.00,,SKC,0.00,VWS V14.01,2013-05-05 03:34:00,
2013-05-04 23:39:00,58.1,33.9,30.06,SE,135,0.0,0.0,40,0.00,,SKC,0.00,VWS V14.01,2013-05-05 03:39:00,
2013-05-04 23:44:00,57.9,34.4,30.05,SE,135,0.0,0.0,41,0.00,,SKC,0.00,VWS V14.01,2013-05-05 03:44:00,
2013-05-04 23:49:00,57.5,34.0,30.05,SE,135,0.0,0.0,41,0.00,,SKC,0.00,VWS V14.01,2013-05-05 03:49:00,
2013-05-04 23:54:00,57.5,34.0,30.05,East,90,0.0,0.0,41,0.00,,SKC,0.00,VWS V14.01,2013-05-05 03:54:00,
2013-05-04 23:59:00,57.3,33.8,30.05,ENE,68,0.0,0.0,41,0.00,,SKC,0.00,VWS V14.01,2013-05-05 03:59:00,